Location: Gro�sch�nbrunn
(49.5760°N, 11.8868°E)
Time: 21:57:48
(UTC+00:00)

Terra - Pass Details

Date: 18 September 2020
Orbit: 701 x 703 km, 98.2° (Epoch: 30 October)

Event Time Altitude Azimuth Distance (km) Brightness Sun altitude
Exits shadow 20:18:54 30° 30° (NNE) 1,269 3.2 -27.6°
Drops below altitude 10° 20:21:50 10° 0° (N) 2,184 4.8 -28.0°
Sets 20:24:14 0° 353° (N) 3,107 5.9 -28.3°
